TimeCDT,TemperatureF,Dew PointF,Humidity,Sea Level PressureIn,VisibilityMPH,Wind Direction,Wind SpeedMPH,Gust SpeedMPH,PrecipitationIn,Events,Conditions,WindDirDegrees,DateUTC
12:53 AM,57.9,55.0,90,29.93,10.0,Calm,Calm,-,N/A,,Clear,0,2013-08-02 05:53:00
1:53 AM,60.1,54.0,80,29.93,10.0,North,6.9,-,N/A,,Clear,10,2013-08-02 06:53:00
2:53 AM,57.0,53.1,87,29.92,10.0,NE,4.6,-,N/A,,Clear,40,2013-08-02 07:53:00
3:53 AM,57.0,54.0,89,29.94,10.0,NE,4.6,-,N/A,,Partly Cloudy,40,2013-08-02 08:53:00
4:53 AM,55.9,53.1,90,29.96,10.0,NNE,4.6,-,N/A,,Clear,20,2013-08-02 09:53:00
5:53 AM,55.0,53.1,93,29.97,10.0,North,3.5,-,N/A,,Clear,350,2013-08-02 10:53:00
6:53 AM,55.0,54.0,96,29.97,10.0,Calm,Calm,-,N/A,,Clear,0,2013-08-02 11:53:00
7:53 AM,57.0,52.0,83,29.97,10.0,North,6.9,-,N/A,,Clear,10,2013-08-02 12:53:00
8:53 AM,57.0,53.1,87,29.97,10.0,NNE,5.8,-,N/A,,Clear,20,2013-08-02 13:53:00
9:53 AM,59.0,55.0,87,30.00,10.0,NNE,3.5,-,N/A,,Clear,30,2013-08-02 14:53:00
10:53 AM,64.9,55.9,73,30.01,10.0,NNE,6.9,-,N/A,,Clear,30,2013-08-02 15:53:00
11:53 AM,66.0,55.9,70,30.01,10.0,NE,4.6,-,N/A,,Clear,50,2013-08-02 16:53:00
12:53 PM,68.0,55.9,65,30.04,10.0,NNE,4.6,-,N/A,,Clear,30,2013-08-02 17:53:00
1:53 PM,69.1,54.0,58,30.01,10.0,NE,4.6,-,N/A,,Clear,40,2013-08-02 18:53:00
2:53 PM,72.0,48.9,44,29.99,10.0,East,6.9,-,N/A,,Clear,90,2013-08-02 19:53:00
3:53 PM,73.0,51.1,46,30.01,10.0,Calm,Calm,-,N/A,,Clear,0,2013-08-02 20:53:00
4:53 PM,73.9,52.0,46,30.01,10.0,Calm,Calm,-,N/A,,Clear,0,2013-08-02 21:53:00
5:53 PM,75.0,53.1,46,30.02,10.0,NNE,5.8,-,N/A,,Clear,20,2013-08-02 22:53:00
6:53 PM,70.0,53.1,55,30.04,10.0,NE,4.6,-,N/A,,Clear,50,2013-08-02 23:53:00
7:53 PM,70.0,52.0,53,30.04,10.0,NE,5.8,-,N/A,,Clear,40,2013-08-03 00:53:00
8:53 PM,66.0,53.1,63,30.06,10.0,Calm,Calm,-,N/A,,Clear,0,2013-08-03 01:53:00
9:53 PM,61.0,53.1,75,30.07,10.0,ENE,5.8,-,N/A,,Clear,60,2013-08-03 02:53:00
10:53 PM,57.0,52.0,83,30.08,10.0,East,6.9,-,N/A,,Clear,80,2013-08-03 03:53:00
11:53 PM,53.1,51.1,93,30.09,10.0,Calm,Calm,-,N/A,,Clear,0,2013-08-03 04:53:00